| time (UTC) | temp C | wind direction | speed KPH | gust KPH | rain 1hr cm | rain 24hr cm | rain mn cm | humidity % | barometer mb |
| 20260502195901 | 19 | 327 | 1.6 | 1.6 | 0.00 | 0.00 | 0.00 | 70 | 1013.8 |
| 20260502195401 | 19 | 328 | 1.6 | 1.6 | 0.00 | 0.00 | 0.00 | 70 | 1013.9 |
| 20260502194902 | 19 | 320 | 1.6 | 3.2 | 0.00 | 0.00 | 0.00 | 70 | 1013.8 |
| 20260502194402 | 20 | 326 | 1.6 | 1.6 | 0.00 | 0.00 | 0.00 | 69 | 1013.7 |
| 20260502193901 | 20 | 0 | 1.6 | 1.6 | 0.00 | 0.00 | 0.00 | 69 | 1013.6 |
| 20260502193402 | 20 | 336 | 1.6 | 1.6 | 0.00 | 0.00 | 0.00 | 70 | 1013.6 |
| 20260502192903 | 20 | 329 | 1.6 | 1.6 | 0.00 | 0.00 | 0.00 | 68 | 1013.5 |
| 20260502192402 | 20 | 331 | 1.6 | 1.6 | 0.00 | 0.00 | 0.00 | 67 | 1013.4 |
| 20260502191902 | 20 | 0 | 1.6 | 1.6 | 0.00 | 0.00 | 0.00 | 67 | 1013.3 |
| 20260502191402 | 21 | 0 | 0.0 | 0.0 | 0.00 | 0.00 | 0.00 | 65 | 1013.4 |
| 20260502190901 | 21 | 0 | 0.0 | 0.0 | 0.00 | 0.00 | 0.00 | 65 | 1013.4 |
| 20260502190402 | 21 | 0 | 0.0 | 0.0 | 0.00 | 0.00 | 0.00 | 65 | 1013.4 |
| 20260502185901 | 21 | 0 | 0.0 | 0.0 | 0.00 | 0.00 | 0.00 | 64 | 1013.4 |
| 20260502185401 | 22 | 0 | 0.0 | 0.0 | 0.00 | 0.00 | 0.00 | 64 | 1013.4 |
| 20260502184901 | 22 | 329 | 0.0 | 0.0 | 0.00 | 0.00 | 0.00 | 63 | 1013.4 |
| 20260502184401 | 22 | 333 | 0.0 | 1.6 | 0.00 | 0.00 | 0.00 | 60 | 1013.4 |
| 20260502183902 | 22 | 0 | 0.0 | 0.0 | 0.00 | 0.00 | 0.00 | 60 | 1013.4 |
| 20260502183401 | 22 | 0 | 0.0 | 0.0 | 0.00 | 0.00 | 0.00 | 60 | 1013.3 |
| 20260502182903 | 23 | 0 | 0.0 | 0.0 | 0.00 | 0.00 | 0.00 | 59 | 1013.3 |
| 20260502182403 | 23 | 0 | 0.0 | 0.0 | 0.00 | 0.00 | 0.00 | 57 | 1013.3 |
| 20260502181901 | 23 | 0 | 0.0 | 0.0 | 0.00 | 0.00 | 0.00 | 56 | 1013.3 |
| 20260502181402 | 23 | 0 | 0.0 | 0.0 | 0.00 | 0.00 | 0.00 | 56 | 1013.3 |
| 20260502180902 | 23 | 0 | 0.0 | 0.0 | 0.00 | 0.00 | 0.00 | 55 | 1013.3 |
| 20260502180401 | 24 | 0 | 0.0 | 0.0 | 0.00 | 0.00 | 0.00 | 54 | 1013.3 |
| 20260502170134 | 26 | 307 | 1.6 | 6.4 | 0.00 | 0.00 | 0.00 | 50 | 1013.8 |
| 20260502164134 | 26 | 326 | 1.6 | 1.6 | 0.00 | 0.00 | 0.00 | 49 | 1014.2 |
| 20260502163634 | 25 | 339 | 3.2 | 4.8 | 0.00 | 0.00 | 0.00 | 49 | 1014.2 |
| 20260502163134 | 25 | 276 | 4.8 | 4.8 | 0.00 | 0.00 | 0.00 | 50 | 1014.2 |
| 20260502162634 | 25 | 291 | 1.6 | 3.2 | 0.00 | 0.00 | 0.00 | 51 | 1014.3 |
| 20260502162134 | 25 | 279 | 0.0 | 3.2 | 0.00 | 0.00 | 0.00 | 51 | 1014.5 |
| 20260502161634 | 25 | 298 | 3.2 | 8.0 | 0.00 | 0.00 | 0.00 | 50 | 1014.5 |
| 20260502161134 | 25 | 261 | 4.8 | 8.0 | 0.00 | 0.00 | 0.00 | 51 | 1014.5 |
| 20260502160635 | 24 | 290 | 1.6 | 4.8 | 0.00 | 0.00 | 0.00 | 51 | 1014.5 |
| 20260502160134 | 23 | 306 | 4.8 | 6.4 | 0.00 | 0.00 | 0.00 | 53 | 1014.6 |
| 20260502152134 | 23 | 303 | 4.8 | 8.0 | 0.00 | 0.00 | 0.00 | 53 | 1015.0 |
| 20260502151634 | 23 | 291 | 1.6 | 6.4 | 0.00 | 0.00 | 0.00 | 53 | 1015.2 |
| 20260502151135 | 23 | 313 | 3.2 | 4.8 | 0.00 | 0.00 | 0.00 | 52 | 1015.2 |
| 20260502150635 | 23 | 285 | 6.4 | 6.4 | 0.00 | 0.00 | 0.00 | 52 | 1015.3 |
| 20260502150134 | 23 | 271 | 3.2 | 4.8 | 0.00 | 0.00 | 0.00 | 52 | 1015.2 |
| 20260502130402 | 24 | 272 | 3.2 | 6.4 | 0.00 | 0.00 | 0.00 | 50 | 1016.4 |
| 20260502123401 | 23 | 285 | 1.6 | 3.2 | 0.00 | 0.00 | 0.00 | 51 | 1016.6 |
| 20260502122901 | 23 | 294 | 6.4 | 12.9 | 0.00 | 0.00 | 0.00 | 52 | 1016.7 |
| 20260502122402 | 23 | 254 | 4.8 | 8.0 | 0.00 | 0.00 | 0.00 | 51 | 1016.8 |
| 20260502121902 | 23 | 337 | 3.2 | 6.4 | 0.00 | 0.00 | 0.00 | 52 | 1016.8 |
| 20260502121401 | 23 | 235 | 3.2 | 6.4 | 0.00 | 0.00 | 0.00 | 51 | 1016.8 |
| 20260502120902 | 23 | 253 | 6.4 | 12.9 | 0.00 | 0.00 | 0.00 | 50 | 1016.9 |
| 20260502120402 | 23 | 273 | 4.8 | 9.7 | 0.00 | 0.00 | 0.00 | 51 | 1016.9 |
| 20260502115901 | 23 | 248 | 4.8 | 8.0 | 0.00 | 0.00 | 0.00 | 51 | 1017.0 |
| 20260502115401 | 23 | 291 | 4.8 | 6.4 | 0.00 | 0.00 | 0.00 | 52 | 1017.0 |
| 20260502114902 | 23 | 287 | 6.4 | 11.3 | 0.00 | 0.00 | 0.00 | 51 | 1017.1 |
| 20260502114404 | 23 | 299 | 3.2 | 6.4 | 0.00 | 0.00 | 0.00 | 52 | 1017.1 |
| 20260502113902 | 23 | 266 | 6.4 | 11.3 | 0.00 | 0.00 | 0.00 | 51 | 1017.1 |
| 20260502113402 | 22 | 221 | 6.4 | 9.7 | 0.00 | 0.00 | 0.00 | 51 | 1017.2 |
| 20260502112902 | 22 | 276 | 4.8 | 6.4 | 0.00 | 0.00 | 0.00 | 51 | 1017.2 |
| 20260502112401 | 22 | 210 | 3.2 | 4.8 | 0.00 | 0.00 | 0.00 | 51 | 1017.2 |
| 20260502111902 | 22 | 182 | 4.8 | 6.4 | 0.00 | 0.00 | 0.00 | 51 | 1017.2 |
| 20260502111402 | 21 | 162 | 4.8 | 4.8 | 0.00 | 0.00 | 0.00 | 51 | 1017.3 |
| 20260502110902 | 21 | 175 | 6.4 | 8.0 | 0.00 | 0.00 | 0.00 | 51 | 1017.4 |
| 20260502110402 | 21 | 24 | 3.2 | 4.8 | 0.00 | 0.00 | 0.00 | 51 | 1017.3 |
| 20260502105902 | 21 | 95 | 1.6 | 3.2 | 0.00 | 0.00 | 0.00 | 50 | 1017.4 |
| 20260502105401 | 21 | 155 | 3.2 | 4.8 | 0.00 | 0.00 | 0.00 | 50 | 1017.4 |
| 20260502104902 | 21 | 175 | 3.2 | 6.4 | 0.00 | 0.00 | 0.00 | 50 | 1017.4 |
| 20260502104401 | 22 | 192 | 4.8 | 6.4 | 0.00 | 0.00 | 0.00 | 49 | 1017.4 |
| 20260502103902 | 22 | 136 | 1.6 | 4.8 | 0.00 | 0.00 | 0.00 | 50 | 1017.4 |
| 20260502103402 | 22 | 301 | 3.2 | 4.8 | 0.00 | 0.00 | 0.00 | 49 | 1017.5 |
| 20260502102903 | 22 | 197 | 1.6 | 4.8 | 0.00 | 0.00 | 0.00 | 48 | 1017.5 |
| 20260502102402 | 23 | 177 | 1.6 | 3.2 | 0.00 | 0.00 | 0.00 | 47 | 1017.5 |
| 20260502101901 | 23 | 135 | 1.6 | 3.2 | 0.00 | 0.00 | 0.00 | 47 | 1017.5 |
| 20260502101401 | 22 | 290 | 4.8 | 6.4 | 0.00 | 0.00 | 0.00 | 47 | 1017.6 |
| 20260502100903 | 22 | 268 | 3.2 | 3.2 | 0.00 | 0.00 | 0.00 | 48 | 1017.7 |
| 20260502100401 | 22 | 187 | 3.2 | 4.8 | 0.00 | 0.00 | 0.00 | 48 | 1017.7 |
| 20260502091402 | 21 | 119 | 3.2 | 6.4 | 0.00 | 0.00 | 0.00 | 49 | 1018.0 |
| 20260502090901 | 21 | 227 | 1.6 | 3.2 | 0.00 | 0.00 | 0.00 | 49 | 1018.0 |
| 20260502090401 | 21 | 141 | 1.6 | 6.4 | 0.00 | 0.00 | 0.00 | 48 | 1018.0 |
| 20260502071402 | 17 | 131 | 3.2 | 6.4 | 0.00 | 0.00 | 0.00 | 51 | 1018.2 |
| 20260502070901 | 17 | 281 | 4.8 | 6.4 | 0.00 | 0.00 | 0.00 | 52 | 1018.2 |
| 20260502070401 | 17 | 29 | 3.2 | 3.2 | 0.00 | 0.00 | 0.00 | 52 | 1018.3 |
| 20260502065902 | 16 | 335 | 1.6 | 3.2 | 0.00 | 0.00 | 0.00 | 53 | 1018.4 |
| 20260502065402 | 16 | 290 | 1.6 | 3.2 | 0.00 | 0.00 | 0.00 | 54 | 1018.3 |
| 20260502064901 | 16 | 306 | 3.2 | 4.8 | 0.00 | 0.00 | 0.00 | 55 | 1018.3 |
| 20260502064401 | 16 | 188 | 4.8 | 6.4 | 0.00 | 0.00 | 0.00 | 55 | 1018.2 |
| 20260502063902 | 16 | 293 | 3.2 | 4.8 | 0.00 | 0.00 | 0.00 | 56 | 1018.2 |
| 20260502063401 | 15 | 198 | 3.2 | 6.4 | 0.00 | 0.00 | 0.00 | 57 | 1018.2 |
| 20260502062902 | 15 | 155 | 4.8 | 8.0 | 0.00 | 0.00 | 0.00 | 57 | 1018.2 |
| 20260502062401 | 15 | 168 | 6.4 | 8.0 | 0.00 | 0.00 | 0.00 | 57 | 1018.1 |
| 20260502061902 | 15 | 237 | 3.2 | 6.4 | 0.00 | 0.00 | 0.00 | 57 | 1018.1 |
| 20260502061402 | 15 | 164 | 6.4 | 8.0 | 0.00 | 0.00 | 0.00 | 58 | 1018.2 |
| 20260502060901 | 14 | 167 | 4.8 | 11.3 | 0.00 | 0.00 | 0.00 | 58 | 1018.2 |
| 20260502060402 | 14 | 162 | 6.4 | 9.7 | 0.00 | 0.00 | 0.00 | 58 | 1018.2 |
| 20260502055901 | 14 | 173 | 6.4 | 9.7 | 0.00 | 0.00 | 0.00 | 59 | 1018.2 |
| 20260502055401 | 13 | 158 | 8.0 | 12.9 | 0.00 | 0.00 | 0.00 | 59 | 1018.2 |
| 20260502054901 | 13 | 156 | 6.4 | 12.9 | 0.00 | 0.00 | 0.00 | 60 | 1018.3 |
| 20260502054402 | 13 | 321 | 3.2 | 4.8 | 0.00 | 0.00 | 0.00 | 61 | 1018.3 |
| 20260502053901 | 13 | 328 | 3.2 | 4.8 | 0.00 | 0.00 | 0.00 | 62 | 1018.3 |
| 20260502053403 | 12 | 316 | 3.2 | 3.2 | 0.00 | 0.00 | 0.00 | 63 | 1018.2 |
| 20260502052902 | 12 | 311 | 3.2 | 3.2 | 0.00 | 0.00 | 0.00 | 63 | 1018.2 |
| 20260502052401 | 12 | 192 | 3.2 | 4.8 | 0.00 | 0.00 | 0.00 | 63 | 1018.3 |
| 20260502051902 | 12 | 206 | 3.2 | 6.4 | 0.00 | 0.00 | 0.00 | 64 | 1018.2 |
| 20260502051401 | 12 | 296 | 3.2 | 3.2 | 0.00 | 0.00 | 0.00 | 64 | 1018.2 |
| 20260502050902 | 12 | 165 | 4.8 | 6.4 | 0.00 | 0.00 | 0.00 | 64 | 1018.2 |
| 20260502050402 | 12 | 184 | 3.2 | 4.8 | 0.00 | 0.00 | 0.00 | 65 | 1018.2 |
| 20260502045901 | 12 | 168 | 4.8 | 6.4 | 0.00 | 0.00 | 0.00 | 64 | 1018.2 |
| 20260502045401 | 12 | 161 | 6.4 | 6.4 | 0.00 | 0.00 | 0.00 | 64 | 1018.1 |
| 20260502044902 | 12 | 167 | 6.4 | 6.4 | 0.00 | 0.00 | 0.00 | 65 | 1018.2 |
| 20260502044401 | 11 | 159 | 6.4 | 8.0 | 0.00 | 0.00 | 0.00 | 65 | 1018.2 |
| 20260502043902 | 11 | 172 | 6.4 | 8.0 | 0.00 | 0.00 | 0.00 | 65 | 1018.2 |
| 20260502043401 | 11 | 167 | 6.4 | 6.4 | 0.00 | 0.00 | 0.00 | 65 | 1018.3 |
| 20260502042901 | 11 | 161 | 6.4 | 6.4 | 0.00 | 0.00 | 0.00 | 65 | 1018.3 |
| 20260502042402 | 11 | 174 | 6.4 | 6.4 | 0.00 | 0.00 | 0.00 | 65 | 1018.3 |
| 20260502041901 | 12 | 169 | 6.4 | 6.4 | 0.00 | 0.00 | 0.00 | 65 | 1018.3 |
| 20260502041401 | 12 | 171 | 6.4 | 6.4 | 0.00 | 0.00 | 0.00 | 64 | 1018.3 |
| 20260502040902 | 12 | 163 | 6.4 | 8.0 | 0.00 | 0.00 | 0.00 | 64 | 1018.4 |
| 20260502040402 | 12 | 161 | 6.4 | 9.7 | 0.00 | 0.00 | 0.00 | 63 | 1018.4 |
| 20260502035902 | 12 | 159 | 6.4 | 6.4 | 0.00 | 0.00 | 0.00 | 63 | 1018.5 |
| 20260502035401 | 12 | 167 | 6.4 | 6.4 | 0.00 | 0.00 | 0.00 | 63 | 1018.6 |
| 20260502034901 | 12 | 156 | 6.4 | 8.0 | 0.00 | 0.00 | 0.00 | 63 | 1018.6 |
| 20260502034401 | 12 | 188 | 3.2 | 4.8 | 0.00 | 0.00 | 0.00 | 63 | 1018.6 |
| 20260502033902 | 12 | 166 | 4.8 | 6.4 | 0.00 | 0.00 | 0.00 | 62 | 1018.7 |
| 20260502033401 | 12 | 175 | 4.8 | 8.0 | 0.00 | 0.00 | 0.00 | 62 | 1018.7 |
| 20260502032901 | 12 | 149 | 6.4 | 8.0 | 0.00 | 0.00 | 0.00 | 62 | 1018.6 |
| 20260502032401 | 12 | 152 | 6.4 | 6.4 | 0.00 | 0.00 | 0.00 | 62 | 1018.7 |
| 20260502031902 | 12 | 155 | 6.4 | 6.4 | 0.00 | 0.00 | 0.00 | 62 | 1018.7 |
| 20260502031402 | 12 | 180 | 4.8 | 6.4 | 0.00 | 0.00 | 0.00 | 61 | 1018.7 |
| 20260502030901 | 12 | 144 | 6.4 | 6.4 | 0.00 | 0.00 | 0.00 | 61 | 1018.7 |
| 20260502030402 | 12 | 165 | 3.2 | 4.8 | 0.00 | 0.00 | 0.00 | 61 | 1018.8 |
| 20260502025902 | 12 | 161 | 3.2 | 4.8 | 0.00 | 0.00 | 0.00 | 61 | 1018.8 |
| 20260502025402 | 12 | 202 | 1.6 | 4.8 | 0.00 | 0.00 | 0.00 | 61 | 1018.8 |
| 20260502024901 | 13 | 201 | 3.2 | 4.8 | 0.00 | 0.00 | 0.00 | 60 | 1018.9 |
| 20260502024402 | 13 | 278 | 3.2 | 4.8 | 0.00 | 0.00 | 0.00 | 59 | 1018.8 |
| 20260502023901 | 13 | 153 | 3.2 | 6.4 | 0.00 | 0.00 | 0.00 | 59 | 1018.8 |
| 20260502023401 | 13 | 348 | 3.2 | 4.8 | 0.00 | 0.00 | 0.00 | 59 | 1018.8 |
| 20260502022902 | 13 | 230 | 3.2 | 6.4 | 0.00 | 0.00 | 0.00 | 58 | 1018.9 |
| 20260502022403 | 13 | 115 | 1.6 | 1.6 | 0.00 | 0.00 | 0.00 | 58 | 1018.9 |
| 20260502021901 | 13 | 153 | 4.8 | 6.4 | 0.00 | 0.00 | 0.00 | 58 | 1019.0 |
| 20260502021402 | 13 | 132 | 4.8 | 8.0 | 0.00 | 0.00 | 0.00 | 57 | 1019.0 |
| 20260502020901 | 13 | 134 | 6.4 | 9.7 | 0.00 | 0.00 | 0.00 | 57 | 1019.1 |
| 20260502020401 | 13 | 197 | 3.2 | 8.0 | 0.00 | 0.00 | 0.00 | 57 | 1019.1 |
| 20260502015901 | 13 | 69 | 6.4 | 9.7 | 0.00 | 0.00 | 0.00 | 57 | 1019.2 |
| 20260502015402 | 13 | 204 | 4.8 | 9.7 | 0.00 | 0.00 | 0.00 | 57 | 1019.2 |
| 20260502014901 | 13 | 329 | 1.6 | 3.2 | 0.00 | 0.00 | 0.00 | 57 | 1019.2 |
| 20260502014401 | 14 | 136 | 4.8 | 6.4 | 0.00 | 0.00 | 0.00 | 56 | 1019.3 |
| 20260502013901 | 14 | 124 | 4.8 | 8.0 | 0.00 | 0.00 | 0.00 | 56 | 1019.3 |
| 20260502013402 | 14 | 138 | 4.8 | 8.0 | 0.00 | 0.00 | 0.00 | 56 | 1019.4 |
| 20260502012902 | 14 | 159 | 3.2 | 8.0 | 0.00 | 0.00 | 0.00 | 56 | 1019.4 |
| 20260502012401 | 14 | 113 | 4.8 | 8.0 | 0.00 | 0.00 | 0.00 | 55 | 1019.5 |
| 20260502011901 | 14 | 123 | 4.8 | 11.3 | 0.00 | 0.00 | 0.00 | 55 | 1019.6 |
| 20260502011402 | 14 | 141 | 8.0 | 11.3 | 0.00 | 0.00 | 0.00 | 55 | 1019.6 |
| 20260502010902 | 14 | 146 | 9.7 | 11.3 | 0.00 | 0.00 | 0.00 | 54 | 1019.6 |
| 20260502010402 | 14 | 187 | 6.4 | 11.3 | 0.00 | 0.00 | 0.00 | 55 | 1019.6 |
| 20260502005902 | 14 | 136 | 4.8 | 8.0 | 0.00 | 0.00 | 0.00 | 55 | 1019.7 |
| 20260502005401 | 14 | 147 | 8.0 | 11.3 | 0.00 | 0.00 | 0.00 | 55 | 1019.8 |
| 20260502004902 | 14 | 143 | 4.8 | 9.7 | 0.00 | 0.00 | 0.00 | 54 | 1019.8 |
| 20260502004402 | 14 | 143 | 4.8 | 6.4 | 0.00 | 0.00 | 0.00 | 54 | 1019.8 |
| 20260502003902 | 14 | 156 | 6.4 | 9.7 | 0.00 | 0.00 | 0.00 | 54 | 1019.9 |
| 20260502003402 | 15 | 162 | 4.8 | 8.0 | 0.00 | 0.00 | 0.00 | 54 | 1019.9 |
| 20260502002902 | 15 | 163 | 6.4 | 9.7 | 0.00 | 0.00 | 0.00 | 54 | 1020.0 |
| 20260502002402 | 15 | 145 | 4.8 | 8.0 | 0.00 | 0.00 | 0.00 | 54 | 1020.0 |
| 20260502001901 | 15 | 159 | 4.8 | 8.0 | 0.00 | 0.00 | 0.00 | 54 | 1020.0 |
| 20260502001402 | 15 | 174 | 4.8 | 9.7 | 0.00 | 0.00 | 0.00 | 54 | 1020.1 |
| 20260502000901 | 15 | 157 | 6.4 | 9.7 | 0.00 | 0.00 | 0.00 | 54 | 1020.1 |
| 20260502000402 | 15 | 160 | 4.8 | 8.0 | 0.00 | 0.00 | 0.00 | 53 | 1020.1 |
| 20260501235901 | 15 | 161 | 6.4 | 9.7 | 0.00 | 0.00 | 0.00 | 53 | 1020.1 |
| 20260501235403 | 14 | 148 | 6.4 | 8.0 | 0.00 | 0.00 | 0.00 | 54 | 1020.1 |
| 20260501234902 | 14 | 156 | 6.4 | 9.7 | 0.00 | 0.00 | 0.00 | 54 | 1020.2 |
| 20260501234401 | 13 | 146 | 6.4 | 8.0 | 0.00 | 0.00 | 0.00 | 56 | 1020.1 |
| 20260501233901 | 13 | 21 | 3.2 | 6.4 | 0.00 | 0.00 | 0.00 | 58 | 1020.1 |
| 20260501233401 | 13 | 282 | 3.2 | 6.4 | 0.00 | 0.00 | 0.00 | 60 | 1020.2 |
| 20260501232902 | 13 | 330 | 1.6 | 1.6 | 0.00 | 0.00 | 0.00 | 61 | 1020.2 |
| 20260501232402 | 13 | 339 | 3.2 | 3.2 | 0.00 | 0.00 | 0.00 | 62 | 1020.2 |
| 20260501231902 | 13 | 94 | 3.2 | 4.8 | 0.00 | 0.00 | 0.00 | 63 | 1020.2 |
| 20260501231402 | 13 | 343 | 1.6 | 3.2 | 0.00 | 0.00 | 0.00 | 64 | 1020.2 |
| 20260501230902 | 13 | 293 | 1.6 | 3.2 | 0.00 | 0.00 | 0.00 | 65 | 1020.2 |
| 20260501230401 | 13 | 335 | 1.6 | 3.2 | 0.00 | 0.00 | 0.00 | 65 | 1020.3 |
| 20260501225903 | 13 | 332 | 1.6 | 1.6 | 0.00 | 0.00 | 0.00 | 64 | 1020.2 |
| 20260501225401 | 13 | 309 | 3.2 | 3.2 | 0.00 | 0.00 | 0.00 | 65 | 1020.3 |
| 20260501224902 | 13 | 331 | 1.6 | 1.6 | 0.00 | 0.00 | 0.00 | 64 | 1020.3 |
| 20260501224401 | 13 | 339 | 3.2 | 3.2 | 0.00 | 0.00 | 0.00 | 63 | 1020.4 |
| 20260501223902 | 13 | 331 | 1.6 | 1.6 | 0.00 | 0.00 | 0.00 | 63 | 1020.4 |
| 20260501223402 | 13 | 338 | 3.2 | 3.2 | 0.00 | 0.00 | 0.00 | 64 | 1020.4 |
| 20260501222901 | 13 | 336 | 1.6 | 3.2 | 0.00 | 0.00 | 0.00 | 64 | 1020.5 |
| 20260501222402 | 13 | 335 | 3.2 | 3.2 | 0.00 | 0.00 | 0.00 | 66 | 1020.5 |
| 20260501221903 | 13 | 329 | 1.6 | 1.6 | 0.00 | 0.00 | 0.00 | 64 | 1020.5 |
| 20260501221401 | 13 | 341 | 1.6 | 3.2 | 0.00 | 0.00 | 0.00 | 66 | 1020.6 |
| 20260501220901 | 13 | 335 | 1.6 | 3.2 | 0.00 | 0.00 | 0.00 | 66 | 1020.6 |
| 20260501220405 | 13 | 344 | 3.2 | 3.2 | 0.00 | 0.00 | 0.00 | 65 | 1020.6 |
| 20260501215901 | 14 | 348 | 1.6 | 3.2 | 0.00 | 0.00 | 0.00 | 65 | 1020.6 |
| 20260501215401 | 14 | 7 | 3.2 | 4.8 | 0.00 | 0.00 | 0.00 | 64 | 1020.6 |
| 20260501214901 | 14 | 121 | 4.8 | 6.4 | 0.00 | 0.00 | 0.00 | 64 | 1020.6 |
| 20260501214402 | 14 | 338 | 3.2 | 3.2 | 0.00 | 0.00 | 0.00 | 64 | 1020.6 |
| 20260501213903 | 14 | 325 | 3.2 | 4.8 | 0.00 | 0.00 | 0.00 | 64 | 1020.6 |
| 20260501213402 | 14 | 334 | 1.6 | 3.2 | 0.00 | 0.00 | 0.00 | 65 | 1020.7 |
| 20260501212902 | 14 | 334 | 1.6 | 3.2 | 0.00 | 0.00 | 0.00 | 64 | 1020.7 |
| 20260501212402 | 14 | 337 | 3.2 | 3.2 | 0.00 | 0.00 | 0.00 | 64 | 1020.7 |
| 20260501211902 | 15 | 336 | 1.6 | 3.2 | 0.00 | 0.00 | 0.00 | 64 | 1020.7 |
| 20260501211401 | 15 | 333 | 3.2 | 3.2 | 0.00 | 0.00 | 0.00 | 65 | 1020.7 |
| 20260501210902 | 15 | 333 | 1.6 | 3.2 | 0.00 | 0.00 | 0.00 | 63 | 1020.7 |
| 20260501210404 | 15 | 332 | 1.6 | 1.6 | 0.00 | 0.00 | 0.00 | 64 | 1020.7 |
| 20260501205901 | 15 | 325 | 3.2 | 4.8 | 0.00 | 0.00 | 0.00 | 63 | 1020.8 |
| 20260501205402 | 15 | 135 | 3.2 | 4.8 | 0.00 | 0.00 | 0.00 | 62 | 1020.8 |
| 20260501204901 | 15 | 149 | 4.8 | 4.8 | 0.00 | 0.00 | 0.00 | 63 | 1020.8 |
| 20260501204401 | 15 | 11 | 3.2 | 4.8 | 0.00 | 0.00 | 0.00 | 62 | 1020.8 |
| 20260501203902 | 15 | 6 | 3.2 | 4.8 | 0.00 | 0.00 | 0.00 | 62 | 1020.9 |
| 20260501203401 | 16 | 331 | 1.6 | 1.6 | 0.00 | 0.00 | 0.00 | 61 | 1020.9 |
| 20260501202903 | 16 | 329 | 1.6 | 1.6 | 0.00 | 0.00 | 0.00 | 60 | 1021.0 |
| 20260501202402 | 16 | 17 | 3.2 | 4.8 | 0.00 | 0.00 | 0.00 | 60 | 1020.9 |
| 20260501201901 | 16 | 342 | 3.2 | 3.2 | 0.00 | 0.00 | 0.00 | 58 | 1020.9 |
| 20260501201402 | 16 | 337 | 1.6 | 1.6 | 0.00 | 0.00 | 0.00 | 57 | 1020.9 |
| 20260501200902 | 16 | 336 | 1.6 | 1.6 | 0.00 | 0.00 | 0.00 | 57 | 1020.9 |
| 20260501200401 | 17 | 332 | 1.6 | 1.6 | 0.00 | 0.00 | 0.00 | 55 | 1020.9 |